Regional Weather Roundup
Issued by NWS

Home | Current Version | Previous Version | Text Only | Print | Product List | Glossary Off
Versions: 1 2 3 4 5 6 7 8 9 10 11 12 13 14 15 16 17 18 19 20 21 22 23 24 25 26 27 28 29 30 31 32 33 34 35 36 37 38 39 40 41 42 43 44 45 46 47 48 49 50

000
ASUS43 KLOT 272303
RWRIL

ILLINOIS REGIONAL WEATHER ROUNDUP
NATIONAL WEATHER SERVICE CHICAGO/ROMEOVILLE IL
600 PM CDT THU APR 27 2017

NOTE: "FAIR" INDICATES FEW OR NO CLOUDS BELOW 12,000 FEET WITH NO
SIGNIFICANT WEATHER AND/OR OBSTRUCTIONS TO VISIBILITY.

* THESE STATIONS ARE NOT UNDER NWS QUALITY CONTROL. THEY ALSO MAY NOT
  REPORT WEATHER SUCH AS PRECIPITATION OR FOG.

ILZ001-002-007-009-015-016-024-280000-
NORTHWEST ILLINOIS

CITY           SKY/WX    TMP DP  RH WIND       PRES   REMARKS
MOLINE         CLOUDY    47  36  65 W9        29.75R
STERLING*      CLOUDY    43  36  76 W17G23    29.75
SAVANNA*       CLOUDY    43  34  70 W12G18    29.74R
$$

ILZ003-004-008-010-011-017-018-280000-
NORTH CENTRAL ILLINOIS

CITY           SKY/WX    TMP DP  RH WIND       PRES   REMARKS
ROCKFORD       CLOUDY    44  35  70 W10       29.73R
FREEPORT*      CLOUDY    41  34  75 SW15      29.73R
ROCHELLE*      CLOUDY    42  36  79 W18G24    29.74R
DE KALB*       CLOUDY    43  35  75 W16G24    29.73R
PERU*          CLOUDY    45  37  72 W13G23    29.77R
$$

ILZ005-006-012>014-019>023-280000-
NORTHEAST ILLINOIS

CITY           SKY/WX    TMP DP  RH WIND       PRES   REMARKS
CHICAGO-OHARE  CLOUDY    46  36  68 SW16G25   29.72R
CHICAGO-MIDWAY CLOUDY    47  38  71 SW16G23   29.73R
AURORA         CLOUDY    46  38  73 W16G23    29.73R
LANSING*       CLOUDY    47  42  81 SW13G21   29.74R
WAUKEGAN       CLOUDY    43  37  79 SW10G24   29.70R
DUPAGE AIRPORT CLOUDY    45  38  76 SW18G25   29.72R
WHEELING       CLOUDY    45  37  73 W13G22    29.73R
MORRIS*        CLOUDY    47  39  75 W10       29.73S
NORTHERLY ISL    N/A     47  36  65 SW8         N/A
$$

LMZ740>746-280000-
SOUTHERN LAKE MICHIGAN

STATION/POSITION SKY/WX   TEMP    WIND        PRES    VSBY  WAVE
                          AIR SEA DIR/SP/G                  HT/PER
                          (F)     (DEG/KT/KT) (MB)    (MI)  (FT/S)
SOUTHERN BUOY              43 41  250/ 14/ 16 1005.4          3/ 5
HARRISON CRIB              47     230/ 15/ 17   N/A
BURNHAM HARBOR             47     250/  5/ 15   N/A
CALUMET HARBOR             48     240/  9/ 15 1006.3R
BURNS HARBOR               49     210/ 17/ 21 1007.5R
MICHIGAN CITY              47     200/ 14/ 18   N/A
MICHIGAN CITY 6N           47 47                N/A           4/ 4
ST. JOSEPH                 46 48  240/ 12/ 16 1007.5R         4/ 5
$$

ILZ025>027-034>036-040-047-049-050-058-095>099-280000-
WEST-CENTRAL ILLINOIS

CITY           SKY/WX    TMP DP  RH WIND       PRES   REMARKS
QUINCY         MOSUNNY   56  41  57 W9        29.74R
GALESBURG*     CLOUDY    49  39  68 SW8       29.74S
MACOMB*        PTSUNNY   53  43  67 W12       29.77R
JACKSONVILLE*  MOSUNNY   56  44  62 W8        29.76R
PITTSFIELD*    MOSUNNY   57  44  61 SW7       29.76S
$$

ILZ028>032-037-038-041>044-048-051>054-059>061-280000-
CENTRAL ILLINOIS

CITY           SKY/WX    TMP DP  RH WIND       PRES   REMARKS
PONTIAC        CLOUDY    49  43  79 W12       29.77R
BLOOMINGTON    CLOUDY    50  41  71 W13       29.77R
DECATUR        CLOUDY    52  43  71 SW10      29.78S
PEORIA         CLOUDY    51  40  65 W10       29.76R
SPRINGFIELD    PTSUNNY   56  44  64 SW8       29.77S
TAYLORVILLE    CLOUDY    53  44  71 SW8       29.78S
$$

ILZ033-039-045-046-055>057-062-063-280000-
EAST-CENTRAL ILLINOIS

CITY           SKY/WX    TMP DP  RH WIND       PRES   REMARKS
CHAMPAIGN      CLOUDY    50  41  71 SW13      29.80R
RANTOUL*       CLOUDY    51  43  74 SW10      29.79R
MATTOON        MOSUNNY   53  43  68 SW7       29.79R
PARIS*         CLOUDY    52  46  79 SW10G16   29.82R
$$

ILZ079-100>102-280000-
SOUTHWEST ILLINOIS

CITY           SKY/WX    TMP DP  RH WIND       PRES   REMARKS
ALTON          MOSUNNY   57  43  58 VRB6      29.77S
BELLEVILLE     SUNNY     61  44  53 CALM      29.76S
CAHOKIA*       SUNNY     62  42  47 VRB3      29.76S
$$

ILZ064>066-069>071-074>076-080>082-084>086-088>090-092>094-280000-
SOUTH-CENTRAL ILLINOIS

CITY           SKY/WX    TMP DP  RH WIND       PRES   REMARKS
CARBONDALE     SUNNY     59  47  64 S7        29.79S
CAIRO*         SUNNY     60  49  67 S5        29.82R
EFFINGHAM*     PTSUNNY   55  44  68 S9        29.82S
MARION         MOSUNNY   61  46  59 S6        29.81S
MT. VERNON     MOSUNNY   58  46  64 S6        29.80F
CENTRALIA*     MOSUNNY   58  47  67 S5        29.78F
SALEM*         PTSUNNY   59  45  59 S7        29.79F
$$

ILZ067-068-072-073-078-083-087-091-280000-
SOUTHEAST ILLINOIS

CITY           SKY/WX    TMP DP  RH WIND       PRES   REMARKS
LAWRENCEVILLE  CLOUDY    55  45  68 SW9       29.83S
FLORA*         CLOUDY    58  47  65 S7        29.81S
FAIRFIELD*     MOSUNNY   57  45  63 S3        29.80F
HARRISBURG*    MOSUNNY   59  47  64 S5        29.81F
ROBINSON*      CLOUDY    54  45  72 SW8       29.83S
CARMI*         CLOUDY    57  48  70 S8        29.81F
$$

ABBREVIATIONS USED IN REMARKS
   TC - TEMPERATURE IN CELSIUS
  WCI - WIND CHILL INDEX
   HX - HEAT INDEX
  VSB - VISIBILITY
$$




USA.gov is the U.S. government's official web portal to all federal, state and local government web resources and services.